Weather History for Paganella, Italy

Change the Weather History Date:

Thursday, June 20, 2013

  Actual Average Record
Temperature  
Mean Temperature 58 °F -  
Max Temperature 64 °F 55 °F 66 °F (2000)
Min Temperature 51 °F 42 °F 32 °F (1999)
Degree Days  
Heating Degree Days 8    
Growing Degree Days 8 (Base 50)    
Moisture  
Dew Point 51 °F    
Average Humidity 80    
Maximum Humidity 100    
Minimum Humidity 46    
Precipitation  
Precipitation 0.00 in 0.12 in - ()
Sea Level Pressure  
Sea Level Pressure 30.27 in    
Wind  
Wind Speed 12 mph ()    
Max Wind Speed 31 mph    
Max Gust Speed -    
Visibility 4.1 miles    
Events Fog    
Averages and records for this station are not official NWS values.
T = Trace of Precipitation, MM = Missing Value Source: Averaged Metar Reports

Daily Weather History Graph

Daily Weather History Graph

Search for Another Location

Airport:

Trip Planner

Search our weather history database for the weather conditions in past years. The results will help you decide how hot, cold, wet, or windy it might be!

Date:

Astronomy

Jun. 20, 2013 Rise Set
Actual Time 5:24 AM CEST 9:10 PM CEST
Civil Twilight 4:45 AM CEST 9:49 PM CEST
Nautical Twilight 3:53 AM CEST 10:41 PM CEST
Astronomical Twilight 2:39 AM CEST 11:55 PM CEST
Moon 5:46 PM CEST (6/20) 2:47 AM CEST (6/20)
Length of Visible Light 17h 04m
Length of Day
15h 46m
Waxing Gibbous, 87% of the Moon is Illuminated
Jun 20
Waxing Gibbous
Jun 23
Full
Jun 30
Last Quarter
Jul 8
New
Jul 16
First Quarter

Hourly Weather History & Observations

Time (CEST) Temp. Dew Point Humidity Pressure Visibility Wind Dir Wind Speed Gust Speed Precip Events Conditions
12:55 AM 53.6 °F 53.6 °F 100% 30.33 in 1.2 mi South 12.7 mph - N/A   Scattered Clouds
1:55 AM 53.6 °F 53.6 °F 100% 30.30 in 0.7 mi SSW 13.8 mph - N/A   Scattered Clouds
2:00 AM 54 °F 53 °F 97%  in 1 mi SSW 13.8 mph - -   Mist
2:55 AM 53.6 °F 53.6 °F 100% 30.30 in 0.7 mi South 15.0 mph - N/A   Partly Cloudy
3:55 AM 53.6 °F 53.6 °F 100% 30.30 in 1.2 mi SW 17.3 mph - N/A   Partly Cloudy
4:55 AM 53.6 °F 53.6 °F 100% 30.30 in 0.6 mi SW 12.7 mph - N/A Fog Fog
5:00 AM 53 °F 53 °F 100%  in 1 mi SW 12.7 mph - - Fog Partial Fog
5:55 AM 53.6 °F 51.8 °F 94% 30.27 in 0.1 mi WSW 9.2 mph - N/A Fog Fog
6:55 AM 53.6 °F 53.6 °F 100% 30.30 in 0.4 mi SSW 8.1 mph - N/A Fog Fog
7:55 AM 53.6 °F 53.6 °F 100% 30.30 in 0.6 mi SSW 2.3 mph - N/A Fog Fog
8:00 AM 54 °F 53 °F 95%  in 1 mi SSW 2.3 mph - - Fog Partial Fog
8:55 AM 55.4 °F 50.0 °F 82% 30.30 in 2.5 mi South 6.9 mph - N/A Fog Fog
9:55 AM 57.2 °F 50.0 °F 77% 30.30 in 2.5 mi SSW 2.3 mph - N/A   Mist
10:55 AM 59.0 °F 51.8 °F 77% 30.30 in 0.6 mi SSW 3.5 mph - N/A Fog Fog
11:00 AM 59 °F 52 °F 70%  in 1 mi SSW 3.5 mph - - Fog Partial Fog
11:55 AM 62.6 °F 53.6 °F 72% 30.30 in 2.5 mi SSW 12.7 mph - N/A   Scattered Clouds
12:55 PM 62.6 °F 46.4 °F 55% 30.30 in 6.2 mi SSW 8.1 mph - N/A   Scattered Clouds
1:55 PM 64.4 °F 48.2 °F 56% 30.27 in 6.2 mi South 11.5 mph - N/A   Partly Cloudy
2:00 PM 64 °F 48 °F 46%  in 12 mi South 11.5 mph - -   Partly Cloudy
2:55 PM 64.4 °F 46.4 °F 52% 30.27 in 6.2 mi SSW 17.3 mph - N/A   Scattered Clouds
3:55 PM 64.4 °F 50.0 °F 59% 30.27 in 6.2 mi SSW 17.3 mph - N/A   Partly Cloudy
4:55 PM 60.8 °F 48.2 °F 63% 30.24 in 6.2 mi SSW 19.6 mph - N/A   Scattered Clouds
5:00 PM 62 °F 49 °F 52%  in 16 mi SSW 19.6 mph - -   Partly Cloudy
5:55 PM 55.4 °F 44.6 °F 67% 30.24 in 6.2 mi SW 25.3 mph - N/A   Scattered Clouds
6:55 PM 57.2 °F 48.2 °F 72% 30.21 in 6.2 mi SW 26.5 mph - N/A   Scattered Clouds
7:55 PM 57.2 °F 48.2 °F 72% 30.21 in 6.2 mi SW 27.6 mph - N/A   Scattered Clouds
8:00 PM 57 °F 49 °F 65%  in 6 mi SW 27.6 mph - -   Mostly Cloudy
8:55 PM 55.4 °F 48.2 °F 77% 30.21 in 6.2 mi South 25.3 mph - N/A   Scattered Clouds
9:55 PM 53.6 °F 48.2 °F 82% 30.21 in 6.2 mi ESE 11.5 mph - N/A   Scattered Clouds
10:55 PM 51.8 °F 50.0 °F 94% 30.21 in 6.2 mi SSE 23.0 mph - N/A   Scattered Clouds
11:55 PM 51.8 °F 50.0 °F 94% 30.18 in 6.2 mi SW 31.1 mph - N/A   Scattered Clouds